Regional Weather Roundup
Issued by NWS Bismarck, ND

Home | Current Version | Previous Version | Text Only | Print | Product List | Glossary On
Versions: 1 2 3 4 5 6 7 8 9 10 11 12 13 14 15 16 17 18 19 20 21 22 23 24 25 26 27 28 29 30 31 32 33 34 35 36 37 38 39 40 41 42 43 44 45 46 47 48 49 50
000
ASUS43 KBIS 261810
RWRBIS

NWR BROADCAST TEXT
NATIONAL WEATHER SERVICE BISMARCK ND
100 PM CDT TUE JUL 26 2016

NOTE: "FAIR" INDICATES FEW OR NO CLOUDS BELOW 12,000 FEET WITH NO
SIGNIFICANT WEATHER AND/OR OBSTRUCTIONS TO VISIBILITY.


CITY           SKY/WX    TMP DP  RH WIND       PRES   REMARKS
WILLISTON      CLOUDY    78  61  55 N12       30.09R
MINOT          CLOUDY    82  64  54 NW5       30.05S
MINOT AFB      CLOUDY    78  64  63 N8        30.04F
BISMARCK       LGT RAIN  73  68  84 N13       30.01F
DICKINSON      CLOUDY    69  64  84 N10       30.04R
GARRISON         N/A     75  69  81 NW8       30.05F
HETTINGER ARPT CLOUDY    77  54  44 NE15      30.02R
JAMESTOWN      CLOUDY    82  65  56 W3        29.98S
BEACH          FAIR      70  63  78 NE10      30.12S
CARRINGTON     FAIR      81  66  61 E6        30.03S
HAZEN          FAIR      70  68  94 CALM      30.06F
LINTON         TSTM      70  70 100 N14G21    30.01F
MANDAN         LGT RAIN  70  66  88 N14       30.01F
OAKES            N/A    N/A N/A N/A MISG        N/A
STANLEY        MOCLDY    75  64  69 VRB3      30.12R
WATFORD CITY     N/A    N/A N/A N/A MISG        N/A
$$

CITY           SKY/WX    TMP DP  RH WIND       PRES   REMARKS
GRAND FORKS    MOSUNNY   85  64  49 N6        29.97R
GRAND FORKS AF SUNNY     84  63  49 NE7       29.98R
DEVILS LAKE    SUNNY     82  60  47 VRB3      30.02S
FARGO          MOSUNNY   80  68  66 CALM      29.95F
CAVALIER       FAIR      81  70  69 N5        29.99S
GRAFTON        FAIR      81  68  65 E6        30.00S
GWINNER        FAIR      79  68  69 N3        29.97F
LANGDON        MOCLDY    82  68  61 N5        30.03R
ROLLA            N/A     75  64  69 N6        30.07R
$$

CITY           SKY/WX    TMP DP  RH WIND       PRES   REMARKS
ABERDEEN       CLOUDY    70  62  76 SE16G23   29.98F
MOBRIDGE       CLOUDY    81  66  60 N20G38    29.96S
BUFFALO          N/A     75  62  64 N10       30.00R
RAPID CITY     SUNNY     81  56  42 SE8       30.05S
GLASGOW        CLOUDY    76  62  62 NE14      30.08R
SIDNEY         CLOUDY    72  63  73 NE6       30.09R
WOLF POINT     CLOUDY    81  60  48 E12       30.08S
GLENDIVE       PTSUNNY   77  60  55 NE12      30.08R
MILES CITY     SUNNY     83  53  35 VRB3      30.05F
BAKER          MOSUNNY   79  57  46 E10       30.08S
$$

CITY           SKY/WX    TMP DP  RH WIND       PRES   REMARKS
BILLINGS       MOSUNNY   83  47  28 SE6       30.09F
GREAT FALLS    SUNNY     80  49  33 E7        30.10S
REGINA         PTSUNNY   73  55  53 NE3       30.12R
ESTEVAN        PTSUNNY   75  55  50 N7        30.10R
$$





USA.gov is the U.S. government's official web portal to all federal, state and local government web resources and services.